User: anonymous   Login
Location: *
(46.1200°N, 11.2700°E)
Time: 14:33:26
(UTC+00:00)
Language:

Meteor 1-11 Rocket - Orbit

View from above orbital plane
View from above orbital plane
View from above satellite
View from above satellite

Ground track
Ground track

The orbit data is extracted from the following two-line orbital elements,

1 05918U 72022B   21137.81647392 -.00000047  00000-0 -35616-4 0  9998
2 05918  81.2402  21.9042 0056979 267.0816  92.3831 14.05884780518742
Epoch (UTC): 17 May 2021 19:35:43
Eccentricity: 0.0056979
inclination: 81.2402°
perigee height: 832 km
apogee height: 915 km
right ascension of ascending node: 21.9042°
argument of perigee: 267.0816°
revolutions per day: 14.05884780
mean anomaly at epoch: 92.3831°
orbit number at epoch: 51874

The dashed part of the orbit path shows where the satellite is in the earth's shadow,  

DLR